Butler, GA

12:08 AM EST on December 10, 2019 (GMT -0500)
Butler

Weather History for K6A1 - October, 2019

Change the Weather History Date:

Tuesday, October 8, 2019

  Actual Average (KMCN) Record (KMCN)
Temperature  
Mean Temperature 76 °F -  
Max Temperature 87 °F 78 °F 93 °F (1941)
Min Temperature 64 °F 55 °F 34 °F (1991)
Cooling Degree Days 10    
Growing Degree Days 26 (Base 50)    
Moisture  
Dew Point 61 °F    
Average Humidity 64    
Maximum Humidity 91    
Minimum Humidity 37    
Precipitation  
Precipitation 0.00 in - - ()
Sea Level Pressure  
Sea Level Pressure 30.01 in    
Wind  
Wind Speed 3 mph ()    
Max Wind Speed 10 mph    
Max Gust Speed -    
Visibility 10.0 miles    
Events      
Averages and records for this station are not official NWS values.
T = Trace of Precipitation, MM = Missing Value Source: Averaged Metar Reports

Daily Weather History Graph

Daily Weather History Graph

Search for Another Location

Airport or City:

Astronomy

Oct. 08, 2019 Rise Set
Actual Time 7:35 AM EDT 7:12 PM EDT
Civil Twilight 7:11 AM EDT 7:37 PM EDT
Nautical Twilight 6:42 AM EDT 8:06 PM EDT
Astronomical Twilight 6:14 AM EDT 8:34 PM EDT
Moon 4:51 PM EDT (10/8) 2:46 AM EDT (10/8)
Length of Visible Light 12h 26m
Length of Day
11h 37m
Waxing Gibbous, 77% of the Moon is Illuminated
Oct 8
Waxing Gibbous
Oct 13
Full
Oct 21
Last Quarter
Oct 27
New
Nov 4
First Quarter

Hourly Weather History & Observations

Time (EDT) Temp. Heat Index Dew Point Humidity Pressure Visibility Wind Dir Wind Speed Gust Speed Precip Events Conditions
12:15 AM 70.7 °F - 61.3 °F 72% 30.02 in 10.0 mi Calm Calm - N/A   Unknown
12:35 AM 69.1 °F - 60.8 °F 75% 30.01 in 10.0 mi Calm Calm - N/A   Unknown
12:55 AM 70.2 °F - 61.2 °F 73% 30.00 in 10.0 mi Calm Calm - N/A   Unknown
1:15 AM 69.8 °F - 60.4 °F 72% 30.00 in 10.0 mi Calm Calm - N/A   Unknown
1:35 AM 69.4 °F - 60.8 °F 74% 30.00 in 10.0 mi NNW 4.6 mph - N/A   Unknown
1:55 AM 69.3 °F - 61.0 °F 75% 29.99 in 10.0 mi NNW 5.8 mph - N/A   Unknown
2:15 AM 69.1 °F - 61.7 °F 77% 29.99 in 10.0 mi NNW 4.6 mph - N/A   Unknown
2:35 AM 68.5 °F - 61.7 °F 79% 29.99 in 10.0 mi Calm Calm - N/A   Unknown
2:55 AM 68.5 °F - 61.9 °F 79% 29.99 in 10.0 mi North 3.5 mph - N/A   Unknown
3:15 AM 68.7 °F - 62.2 °F 80% 29.99 in 10.0 mi North 4.6 mph - N/A   Unknown
3:35 AM 68.9 °F - 62.2 °F 79% 29.98 in 10.0 mi NNE 3.5 mph - N/A   Unknown
3:55 AM 68.7 °F - 62.1 °F 79% 29.98 in 10.0 mi NNE 4.6 mph - N/A   Unknown
4:15 AM 68.2 °F - 62.1 °F 81% 29.98 in 10.0 mi NNE 4.6 mph - N/A   Unknown
4:35 AM 67.1 °F - 61.9 °F 83% 29.98 in 10.0 mi Calm Calm - N/A   Unknown
4:55 AM 66.9 °F - 62.1 °F 84% 29.98 in 10.0 mi North 3.5 mph - N/A   Unknown
5:15 AM 66.6 °F - 62.1 °F 85% 29.99 in 10.0 mi Calm Calm - N/A   Unknown
5:35 AM 67.1 °F - 62.2 °F 84% 30.00 in 10.0 mi ENE 3.5 mph - N/A   Unknown
5:55 AM 66.6 °F - 62.1 °F 85% 30.00 in 10.0 mi Calm Calm - N/A   Unknown
6:15 AM 65.8 °F - 62.1 °F 88% 30.00 in 10.0 mi NNE 3.5 mph - N/A   Unknown
6:35 AM 65.3 °F - 61.7 °F 88% 30.00 in 10.0 mi NNE 4.6 mph - N/A   Unknown
6:55 AM 64.9 °F - 61.7 °F 89% 30.00 in 10.0 mi NNE 4.6 mph - N/A   Unknown
7:15 AM 64.9 °F - 62.1 °F 90% 30.01 in 10.0 mi NE 3.5 mph - N/A   Unknown
7:35 AM 64.8 °F - 61.9 °F 90% 30.02 in 10.0 mi NE 3.5 mph - N/A   Unknown
7:55 AM 64.4 °F - 61.7 °F 91% 30.02 in 10.0 mi NNE 3.5 mph - N/A   Unknown
8:15 AM 65.3 °F - 62.4 °F 90% 30.02 in 10.0 mi NNE 3.5 mph - N/A   Unknown
8:35 AM 66.2 °F - 62.6 °F 88% 30.03 in 10.0 mi NNE 3.5 mph - N/A   Unknown
8:55 AM 67.8 °F - 62.6 °F 83% 30.03 in 10.0 mi NE 4.6 mph - N/A   Unknown
9:15 AM 69.4 °F - 63.0 °F 80% 30.04 in 10.0 mi ENE 4.6 mph - N/A   Unknown
9:35 AM 71.4 °F - 63.9 °F 77% 30.04 in 10.0 mi NE 5.8 mph - N/A   Unknown
9:55 AM 73.4 °F - 64.6 °F 74% 30.04 in 10.0 mi NE 5.8 mph - N/A   Unknown
10:15 AM 75.9 °F - 65.1 °F 69% 30.04 in 10.0 mi East 6.9 mph - N/A   Unknown
10:35 AM 76.1 °F - 65.3 °F 69% 30.04 in 10.0 mi East 5.8 mph - N/A   Unknown
10:55 AM 78.6 °F - 64.8 °F 62% 30.05 in 10.0 mi ENE 3.5 mph - N/A   Unknown
11:15 AM 79.5 °F - 63.5 °F 58% 30.05 in 10.0 mi ENE 5.8 mph - N/A   Unknown
11:35 AM 80.8 °F 82.1 °F 63.3 °F 55% 30.04 in 10.0 mi East 6.9 mph - N/A   Unknown
11:55 AM 81.5 °F 82.7 °F 62.8 °F 53% 30.04 in 10.0 mi NE 6.9 mph - N/A   Unknown
12:15 PM 82.8 °F 82.8 °F 59.7 °F 45% 30.04 in 10.0 mi ESE 8.1 mph - N/A   Unknown
12:35 PM 82.9 °F 83.5 °F 61.2 °F 48% 30.03 in 10.0 mi NNE 10.4 mph - N/A   Unknown
12:55 PM 83.5 °F 83.6 °F 60.3 °F 45% 30.03 in 10.0 mi NE 6.9 mph - N/A   Unknown
1:15 PM 84.2 °F 84.2 °F 59.9 °F 44% 30.02 in 10.0 mi ENE 6.9 mph - N/A   Unknown
1:35 PM 82.2 °F 82.4 °F 59.7 °F 46% 30.02 in 10.0 mi Calm Calm - N/A   Unknown
1:55 PM 84.6 °F 84.2 °F 59.4 °F 42% 30.00 in 10.0 mi ENE 6.9 mph - N/A   Unknown
2:15 PM 85.6 °F 85.2 °F 59.2 °F 41% 29.99 in 10.0 mi East 5.8 mph - N/A   Unknown
2:35 PM 84.6 °F 84.0 °F 58.5 °F 41% 29.99 in 10.0 mi NNE 4.6 mph - N/A   Unknown
2:55 PM 85.3 °F 84.4 °F 57.9 °F 39% 29.98 in 10.0 mi NNE 9.2 mph - N/A   Unknown
3:35 PM 87.1 °F 86.1 °F 57.9 °F 37% 29.97 in 10.0 mi NNE 6.9 mph - N/A   Unknown
3:55 PM 85.3 °F 84.3 °F 57.2 °F 38% 29.97 in 10.0 mi ENE 4.6 mph - N/A   Unknown
4:15 PM 85.6 °F 84.7 °F 57.6 °F 38% 29.96 in 10.0 mi NNE 6.9 mph - N/A   Unknown
4:35 PM 84.6 °F 83.7 °F 57.4 °F 39% 29.97 in 10.0 mi ENE 6.9 mph - N/A   Unknown
4:55 PM 86.9 °F 85.9 °F 57.4 °F 37% 29.97 in 10.0 mi North 6.9 mph - N/A   Unknown
5:15 PM 86.5 °F 85.6 °F 57.9 °F 38% 29.96 in 10.0 mi NNE 9.2 mph - N/A   Unknown
5:35 PM 85.8 °F 84.8 °F 57.6 °F 38% 29.97 in 10.0 mi North 8.1 mph - N/A   Unknown
5:55 PM 85.5 °F 84.5 °F 57.4 °F 38% 29.97 in 10.0 mi NNE 8.1 mph - N/A   Unknown
6:35 PM 83.3 °F 83.2 °F 59.2 °F 44% 29.97 in 10.0 mi North 5.8 mph - N/A   Unknown
7:15 PM 80.6 °F 81.2 °F 59.5 °F 49% 29.98 in 10.0 mi North 4.6 mph - N/A   Unknown
7:35 PM 79.7 °F - 59.5 °F 50% 29.98 in 10.0 mi North 4.6 mph - N/A   Unknown
7:55 PM 78.4 °F - 59.5 °F 52% 29.98 in 10.0 mi Calm Calm - N/A   Unknown
8:15 PM 77.4 °F - 59.7 °F 54% 29.99 in 10.0 mi North 4.6 mph - N/A   Unknown
8:35 PM 77.2 °F - 60.1 °F 55% 29.99 in 10.0 mi North 3.5 mph - N/A   Unknown
8:55 PM 76.8 °F - 60.3 °F 56% 30.00 in 10.0 mi Calm Calm - N/A   Unknown
9:15 PM 76.3 °F - 60.4 °F 58% 30.01 in 10.0 mi Calm Calm - N/A   Unknown
9:35 PM 75.7 °F - 60.8 °F 60% 30.02 in 10.0 mi NNE 3.5 mph - N/A   Unknown
9:55 PM 75.2 °F - 61.2 °F 62% 30.02 in 10.0 mi NNE 4.6 mph - N/A   Unknown
10:15 PM 75.2 °F - 61.7 °F 63% 30.03 in 10.0 mi NNE 5.8 mph - N/A   Unknown
10:35 PM 75.2 °F - 61.9 °F 63% 30.03 in 10.0 mi NE 8.1 mph - N/A   Unknown
10:55 PM 74.3 °F - 62.2 °F 66% 30.04 in 10.0 mi NE 5.8 mph - N/A   Unknown
11:15 PM 73.9 °F - 62.6 °F 68% 30.04 in 10.0 mi NE 4.6 mph - N/A   Unknown
11:35 PM 73.8 °F - 62.8 °F 68% 30.04 in 10.0 mi NE 5.8 mph - N/A   Unknown
11:55 PM 73.4 °F - 63.0 °F 70% 30.04 in 10.0 mi NE 5.8 mph - N/A   Unknown